ZL1CTS-13 Weather Reports


time (UTC)temp
F
wind
direction
speed
knots
gust
knots
rain 1hr
in
rain 24hr
in
rain mn
in
humidity
%
barometer
mb
20260503232004 63 329 0.9 2.6 0.00 0.00 0.00 69 1025.3
20260503231004 63 191 0.9 4.3 0.00 0.00 0.00 70 1025.5
20260503230003 63 228 0.9 2.6 0.00 0.00 0.00 71 1025.4
20260503225004 64 90 0.0 0.9 0.00 0.00 0.00 74 1025.4
20260503224004 63 185 0.0 1.7 0.00 0.00 0.00 76 1025.2
20260503223004 63 205 0.0 1.7 0.00 0.00 0.00 78 1025.4
20260503222004 62 90 0.0 1.7 0.00 0.00 0.00 82 1025.4
20260503221004 61 201 0.9 2.6 0.00 0.00 0.00 85 1025.4
20260503220004 60 222 0.9 1.7 0.00 0.00 0.00 90 1025.4
20260503215004 60 270 0.9 1.7 0.00 0.00 0.00 90 1025.5
20260503214004 60 351 0.0 2.6 0.00 0.00 0.00 92 1025.4
20260503213003 60 135 0.0 0.9 0.00 0.00 0.00 96 1025.3
20260503212004 59 56 0.0 0.9 0.00 0.00 0.00 98 1025.5
20260503211004 58 45 0.0 0.9 0.00 0.00 0.00 98 1025.4
20260503210005 57 0 0.9 0.9 0.00 0.00 0.00 99 1025.3
20260503205004 57 45 0.0 0.9 0.00 0.00 0.00 99 1025.3
20260503204004 56 76 0.0 0.9 0.00 0.00 0.00 99 1025.2
20260503203003 56 90 0.0 0.9 0.00 0.00 0.00 99 1025.3
20260503202004 55 45 0.0 0.9 0.00 0.00 0.00 97 1025.0
20260503201004 55 0 0.0 0.9 0.00 0.00 0.00 97 1025.0
20260503200004 54 197 0.0 1.7 0.00 0.00 0.00 97 1024.9
20260503195004 53 180 0.0 0.9 0.00 0.00 0.00 98 1024.8
20260503194003 53 45 0.0 1.7 0.00 0.00 0.00 98 1024.8
20260503193004 53 0 0.0 0.9 0.00 0.00 0.00 98 1024.6
20260503192004 53 4 0.0 0.9 0.00 0.00 0.00 98 1024.6
20260503191004 53 90 0.0 0.9 0.00 0.00 0.00 98 1024.4
20260503190003 53 71 0.0 0.9 0.00 0.00 0.00 98 1024.3
20260503185004 53 153 0.0 0.9 0.00 0.00 0.00 98 1024.3
20260503184003 53 123 0.0 0.9 0.00 0.00 0.00 98 1024.1
20260503183004 53 0 0.0 0.9 0.00 0.00 0.00 98 1024.2
20260503182005 53 135 0.0 1.7 0.00 0.00 0.00 98 1024.0
20260503181004 53 158 0.0 1.7 0.00 0.00 0.00 98 1024.1
20260503180004 53 160 0.0 0.9 0.00 0.00 0.00 98 1024.0
20260503175003 53 135 0.0 0.9 0.00 0.00 0.00 98 1024.0
20260503174007 53 90 0.0 1.7 0.00 0.00 0.00 98 1024.0
20260503173006 53 90 0.0 0.9 0.00 0.00 0.00 98 1023.9
20260503172006 52 0 0.0 0.9 0.00 0.00 0.00 98 1024.2
20260503171006 52 90 0.9 2.6 0.00 0.00 0.00 98 1024.2
20260503151004 51 90 0.0 0.0 0.00 0.00 0.00 99 1024.6
20260503131004 48 135 0.0 0.0 0.00 0.00 0.00 99 1025.1
20260503081003 51 153 0.0 2.6 0.00 0.00 0.00 96 1024.0
20260503072004 53 132 0.9 0.9 0.00 0.00 0.00 94 1024.1
20260503071004 53 135 0.0 1.7 0.00 0.00 0.00 94 1024.0
20260503055004 57 90 0.0 0.9 0.00 0.00 0.00 80 1023.9
20260503054004 60 90 0.9 0.9 0.00 0.00 0.00 75 1023.9
20260503053004 63 139 0.0 0.0 0.00 0.00 0.00 69 1023.7
20260503052003 67 122 0.0 0.0 0.00 0.00 0.00 66 1023.9
20260503051004 68 225 0.0 0.0 0.00 0.00 0.00 64 1023.7
20260503050005 69 257 0.0 0.0 0.00 0.00 0.00 64 1023.7
20260503045004 69 292 0.0 0.9 0.00 0.00 0.00 63 1023.7
20260503044004 69 270 0.0 1.7 0.00 0.00 0.00 63 1023.8
20260503043004 69 270 0.9 2.6 0.00 0.00 0.00 62 1023.9
20260503042003 69 321 0.9 4.3 0.00 0.00 0.00 61 1023.9
20260503041004 69 288 0.9 4.3 0.00 0.00 0.00 61 1023.9
20260503040004 70 241 0.9 2.6 0.00 0.00 0.00 60 1023.8
20260503035003 70 348 0.9 2.6 0.00 0.00 0.00 59 1024.0
20260503034004 69 283 0.9 2.6 0.00 0.00 0.00 63 1023.9
20260503033004 69 315 1.7 5.2 0.00 0.00 0.00 60 1023.9
20260503032004 70 306 1.7 5.2 0.00 0.00 0.00 59 1024.1
20260503031005 70 344 0.9 4.3 0.00 0.00 0.00 61 1024.2
20260503030005 69 74 1.7 4.3 0.00 0.00 0.00 61 1024.2
20260503025004 70 331 0.9 2.6 0.00 0.00 0.00 64 1024.2
20260503024004 68 205 0.9 7.0 0.00 0.00 0.00 65 1024.3
20260503023003 68 297 1.7 5.2 0.00 0.00 0.00 65 1024.2
20260503022004 67 128 0.9 4.3 0.00 0.00 0.00 64 1024.4
20260503021004 67 321 1.7 5.2 0.00 0.00 0.00 66 1024.5
20260503020004 68 275 1.7 5.2 0.00 0.00 0.00 64 1024.2
20260503015003 68 327 1.7 5.2 0.00 0.00 0.00 65 1024.4
20260503014004 67 261 2.6 7.0 0.00 0.00 0.00 65 1024.4
20260503013004 67 20 2.6 5.2 0.00 0.00 0.00 67 1024.3
20260503012004 67 356 3.5 6.1 0.00 0.00 0.00 64 1024.3
20260503011004 67 334 1.7 5.2 0.00 0.00 0.00 64 1024.4
20260503010004 67 238 1.7 5.2 0.00 0.00 0.00 66 1024.5
20260503005004 67 341 1.7 5.2 0.00 0.00 0.00 66 1024.5
20260503004004 66 255 1.7 6.1 0.00 0.00 0.00 65 1024.8
20260503003004 67 10 1.7 5.2 0.00 0.00 0.00 67 1024.9
20260503002004 66 312 2.6 5.2 0.00 0.00 0.00 69 1024.9
20260503001004 67 313 1.7 5.2 0.00 0.00 0.00 69 1024.9
20260503000003 67 239 1.7 5.2 0.00 0.00 0.00 70 1025.1
20260502235003 67 304 1.7 4.3 0.00 0.00 0.00 70 1025.1
20260502234003 66 0 1.7 5.2 0.00 0.00 0.00 71 1025.2
20260502233003 66 252 1.7 4.3 0.00 0.00 0.00 70 1025.1